Miscellaneous Local Product
Issued by NWS North Platte, NE

Home | Current Version | Previous Version | Text Only | Print | Product List | Glossary On
Versions: 1 2 3 4 5 6 7 8 9 10 11 12 13 14 15 16 17 18 19 20 21 22 23 24 25 26 27 28 29 30 31 32 33 34 35 36 37 38 39 40 41 42 43 44 45 46 47 48 49 50
000
AXUS43 KLBF 272010
MISLBF


WESTERN AND NORTH CENTRAL NEBRASKA HOURLY WEATHER ROUNDUP
NATIONAL WEATHER SERVICE NORTH PLATTE NE
300 PM CDT SAT AUG 27 2016

NOTE: "FAIR" INDICATES FEW OR NO CLOUDS BELOW 12,000 FEET WITH NO
SIGNIFICANT WEATHER AND/OR OBSTRUCTIONS TO VISIBILITY.

NOTE: STATIONS NOT REPORTING VARIABLES SUCH AS SKY/WEATHER OR
PRESSURE ARE PROVIDED BY RAWS AND APRS NETWORKS AND ARE NOT UNDER
NATIONAL WEATHER SERVICE QUALITY CONTROL.

...OBSERVATIONS IN AND NEAR THE EASTERN PANHANDLE OF NEBRASKA...

CITY           SKY/WX    TMP DP  RH WIND       PRES   REMARKS
PINE RIDGE     SUNNY     80  54  40 SW7       29.97S
CHADRON        SUNNY     84  46  26 MISG      29.95F
ALLIANCE       SUNNY     81  48  31 S12G18    30.01F
SIDNEY         SUNNY     79  46  31 VRB3      30.06F
CRESCENT LAKE    N/A     78  56  46 S6          N/A
$$

...OBSERVATIONS IN NORTHERN NEBRASKA AND FAR SOUTHERN SOUTH DAKOTA...

CITY           SKY/WX    TMP DP  RH WIND       PRES   REMARKS
WINNER         FAIR      85  56  37 S9        29.94F
VALENTINE      SUNNY     83  59  44 SW13      29.96F
THEDFORD       SUNNY     83  60  45 S16G22    30.00F
AINSWORTH      MOSUNNY   82  60  48 SW12G20   29.98F
O`NEILL        SUNNY     84  55  37 S13G18    29.98F
ORD            SUNNY     81  60  48 SW10      29.99F
BROKEN BOW     SUNNY     82  62  50 S13G22    30.01F
VALENTINE NWR    N/A     80  61  51 S13G20      N/A
BUTTE            N/A     81  57  43 S7          N/A
HALSEY           N/A     81  58  44 S8          N/A
EWING            N/A     81  68  63 SE6         N/A
$$

...OBSERVATIONS IN SOUTHWEST NEBRASKA AND FAR NORTHEAST COLORADO...

CITY           SKY/WX    TMP DP  RH WIND       PRES   REMARKS
WRAY           FAIR      82  55  39 S9        30.04F
HOLYOKE        FAIR      81  61  50 S9        30.05F
IMPERIAL       SUNNY     79  61  53 S9        30.03F
OGALLALA       SUNNY     81  58  44 SW5       30.03S
NORTH PLATTE   SUNNY     84  61  45 S12       30.01F
MCCOOK         SUNNY     83  63  50 S14       30.01F
LEXINGTON      SUNNY     81  60  48 S14       30.02F
STAPLETON        N/A     83  64  52 MISG        N/A
GOTHENBURG       N/A     79  59  49 S6          N/A
CALLAWAY         N/A     78  66  66 S13         N/A
$$

...OBSERVATIONS IN CENTRAL LINCOLN COUNTY AREA...

CITY           SKY/WX    TMP DP  RH WIND       PRES   REMARKS
N.P. AIRPORT   SUNNY     84  61  45 S12       30.01F
N.P. DOWNTOWN    N/A     82  65  55 S6          N/A
N.P. SOUTHEAST   N/A     82  64  53 S5G12       N/A
N.P. HILLCREST   N/A     81  63  54 S9          N/A
$$

...SOME OBSERVATIONS FROM AROUND THE REGION...

CITY           SKY/WX    TMP DP  RH WIND       PRES   REMARKS
DENVER         MOSUNNY   81  34  18 SE12      30.11F
LARAMIE        SUNNY     73  26  17 S12G24    30.18F
CHEYENNE       SUNNY     77  29  17 SW10G20   30.12F
SCOTTSBLUFF    SUNNY     83  43  24 VRB5      30.01F
RAPID CITY     SUNNY     79  55  43 SE13      29.93F
BISMARCK       SUNNY     78  49  35 SW10G17   29.91F
PIERRE         SUNNY     79  53  40 VRB3      29.91F
SIOUX FALLS    MOSUNNY   73  62  68 S3        29.99F
OMAHA          MOSUNNY   82  64  54 VRB7      30.00F
GRAND ISLAND   SUNNY     83  59  44 SE9       30.02S
KANSAS CITY    PTSUNNY   86  69  56 CALM      30.02F HX  90
WICHITA        MOSUNNY   88  70  55 S10       30.00F HX  93
OKLAHOMA CITY  PTSUNNY   87  70  56 W7        30.00F HX  92
DALLAS         PTSUNNY   89  68  49 E7        29.96F HX  93
AMARILLO       SUNNY     86  59  39 S15G22    30.07F
DODGE CITY     MOSUNNY   86  64  47 S17G23    30.02F
HAYS           MOSUNNY   84  63  48 SE7       30.01F
GOODLAND       SUNNY     82  58  43 SE10      30.04F
$$




USA.gov is the U.S. government's official web portal to all federal, state and local government web resources and services.